User: anonymous   Login
Location: Pine Mountain Observatory
(43.7910°N, 120.9377°W)
Time: 08:17:36
(UTC-07:00)
Language:

IDEFIX/ARIANE 42P - Orbit

View from above orbital plane
View from above orbital plane
View from above satellite
View from above satellite

Ground track
Ground track

The orbit data is extracted from the following two-line orbital elements,

1 27422U 02021B   17296.06194439 -.00000039  00000-0  56622-6 0  9993
2 27422  98.2375 289.3156 0011524 213.1484 146.8978 14.29257620804949
Epoch (UTC): 23 October 2017 01:29:11
Eccentricity: 0.0011524
inclination: 98.2375°
perigee height: 786 km
apogee height: 802 km
right ascension of ascending node: 289.3156°
argument of perigee: 213.1484°
revolutions per day: 14.29257620
mean anomaly at epoch: 146.8978°
orbit number at epoch: 80494

The dashed part of the orbit path shows where the satellite is in the earth's shadow,  

DLR